• Processing (Info)

  • MPEC 2014-O33 : 2014 OZ1

    The following Minor Planet Electronic Circular may be linked-to from your own Web pages, but must not otherwise be redistributed electronically.

    A form allowing access to any MPEC is at the bottom of this page.


    Read MPEC 2014-O32 Read MPEC 2014-O34


    M.P.E.C. 2014-O33                                Issued 2014 July 25, 14:47 UT
    
         The Minor Planet Electronic Circulars contain information on unusual
             minor planets and routine data on comets.  They are published
       on behalf of Commission 20 of the International Astronomical Union by the
              Minor Planet Center, Smithsonian Astrophysical Observatory,
                              Cambridge, MA 02138, U.S.A.
    
                 Prepared using the Tamkin Foundation Computer Network
    
                                  MPC@CFA.HARVARD.EDU
                URL https://www.minorplanetcenter.net/    ISSN 1523-6714
    
                                       2014 OZ1
    
    Observations:
         K14O01Z* S2014 07 20.67246 14 38 56.02 +20 04 42.0          19   RLEO033C51
         K14O01Z  s2014 07 20.67246 1 - 5667.8834 - 3166.4064 + 2277.1094   EO033C51
         K14O01Z  S2014 07 20.80400 14 39 28.06 +19 57 45.6                LEO033C51
         K14O01Z  s2014 07 20.80400 1 - 5666.0923 - 3186.4410 + 2253.5482   EO033C51
         K14O01Z  S2014 07 20.93554 14 40 00.06 +19 50 46.4                LEO033C51
         K14O01Z  s2014 07 20.93554 1 - 5664.1305 - 3206.3981 + 2230.0998   EO033C51
         K14O01Z  S2014 07 21.19874 14 41 04.24 +19 36 46.9                LEO033C51
         K14O01Z  s2014 07 21.19874 1 - 5642.0434 - 3222.7334 + 2261.9611   EO033C51
         K14O01Z  S2014 07 21.33028 14 41 36.29 +19 29 45.6                LEO033C51
         K14O01Z  s2014 07 21.33028 1 - 5639.9646 - 3242.6706 + 2238.5791   EO033C51
         K14O01Z  S2014 07 21.39599 14 41 52.33 +19 26 15.9                LEO033C51
         K14O01Z  s2014 07 21.39599 1 - 5647.5837 - 3264.2854 + 2187.6270   EO033C51
         K14O01Z HC2014 07 22.15010 14 44 55.51 +18 45 36.8          21.4 VqEO033H21
         K14O01Z VC2014 07 22.16012 14 44 57.94 +18 45 02.6                qEO033H21
         K14O01Z KC2014 07 22.16647 14 44 59.82 +18 44 47.3          21.3 RoEO033291
         K14O01Z KC2014 07 22.17247 14 45 01.26 +18 44 28.2          21.5 RoEO033291
         K14O01Z KC2014 07 22.17848 14 45 02.71 +18 44 08.3          21.2 RoEO033291
         K14O01Z  C2014 07 22.88752 14 47 56.37 +18 05 29.0          20.1 VoEO033033
         K14O01Z  C2014 07 22.89643 14 47 58.52 +18 04 59.6          20.1 VoEO033033
         K14O01Z 2C2014 07 25.34773614 58 00.695+15 49 17.17         21.6 RtEO033568
         K14O01Z 2C2014 07 25.34964114 58 01.153+15 49 10.54         21.5 RtEO033568
    
    Observer details:
    033 Karl Schwarzschild Observatory, Tautenburg.  Observer B. Stecklum.  1.34-m
        f/4 Schmidt + CCD.
    291 LPL/Spacewatch II.  Observer R. S. McMillan.  1.8-m f/2.7 reflector + CCD.
    568 Mauna Kea.  Observer D. J. Tholen.  2.24-m University of Hawaii reflector.
    C51 WISE.  Measurers A. K. Mainzer, J. M. Bauer, T. Grav, J. R. Masiero,
        J. W. Dailey, R. M. Cutri, E. L. Wright, C. Nugent, S. Sonnett,
        R. Stevenson.
    H21 Astronomical Research Observatory, Westfield.  Observer R. Holmes.
        Measurers L. Buzzi, S. Foglia, T. Vorobjov, T. Linder.  0.61-m f/4.0
        astrograph + CCD.
    
    Orbital elements:
    2014 OZ1                                                 Earth MOID = 0.1982 AU
    Epoch 2014 May 23.0 TT = JDT 2456800.5                  MPC
    M 345.37225              (2000.0)            P               Q
    n   0.51182771     Peri.  105.09125     -0.34239407     +0.92428067
    a   1.5478190      Node   143.44252     -0.93348976     -0.31427683
    e   0.3104184      Incl.   16.45660     -0.10659814     -0.21664560
    P   1.93           H   21.3           G   0.15           U   9
    Residuals in seconds of arc
    140720 C51  1.7+  0.1+    140721 C51  1.2-  0.3-    140722 291  0.1+  0.4+
    140720 C51  1.3+  1.0+    140722 H21  1.2-  0.4+    140722 033  1.5+  1.3-
    140720 C51  0.2+  0.1-    140722 H21  0.8-  1.1-    140722 033  1.5+  1.3-
    140721 C51  0.3-  0.2-    140722 291  0.4-  0.3+    140725 568  0.0   0.1+
    140721 C51  1.2-  0.9-    140722 291  0.2-  0.7+    140725 568  0.0   0.1-
    
    Ephemeris:
    2014 OZ1                 a,e,i = 1.55, 0.31, 16                  q = 1.0673
    Date    TT    R. A. (2000) Decl.     Delta      r     Elong.  Phase     V
    2014 06 25    12 58 18.8 +37 28 22   0.4470  1.0681    84.2    71.2    22.2
    ...
    2014 07 10    13 56 09.1 +28 36 15   0.4137  1.0823    87.7    69.8    22.0
    ...
    2014 07 18    14 28 06.2 +22 22 49   0.4004  1.0968    90.7    67.9    21.9
    ...
    2014 07 24    14 52 29.8 +17 04 37   0.3947  1.1105    93.3    66.0    21.8
    2014 07 25    14 56 35.9 +16 08 55   0.3942  1.1130    93.7    65.6    21.8
    2014 07 26    15 00 42.5 +15 12 33   0.3938  1.1156    94.1    65.2    21.8
    ...
    2014 08 01    15 25 33.3 +09 24 02   0.3949  1.1322    96.9    62.9    21.8
    ...
    2014 08 09    15 59 02.6 +01 30 17   0.4060  1.1575   100.3    59.5    21.8
    ...
    2014 08 24    17 01 51.7 -11 51 49   0.4600  1.2123   104.7    53.8    22.0
    
    A. U. Tomatic                (C) Copyright 2014 MPC           M.P.E.C. 2014-O33
    

    Read MPEC 2014-O32 Read MPEC 2014-O34


    MPEC number:

    Enter an MPEC number in one of the following forms:

    • 1997-B01 (the full form)
    • J97B01 (the packed version of the full form)
    • B01 (the abbreviated form)